Weather History for EGNX - October, 2012

Change the Weather History Date:

Wednesday, October 10, 2012

  Actual Average Record
Temperature  
Mean Temperature 50 °F -  
Max Temperature 57 °F 52 °F 69 °F (2005)
Min Temperature 42 °F 42 °F 42 °F (1996)
Degree Days  
Heating Degree Days 16    
Moisture  
Dew Point 41 °F    
Average Humidity 74    
Maximum Humidity 93    
Minimum Humidity 55    
Precipitation  
Precipitation 0.00 in - - ()
Sea Level Pressure  
Sea Level Pressure 29.97 in    
Wind  
Wind Speed 5 mph ()    
Max Wind Speed 10 mph    
Max Gust Speed -    
Visibility 6.2 miles    
Events      
Averages and records for this station are not official NWS values.
T = Trace of Precipitation, MM = Missing Value Source: Averaged Metar Reports

Daily Weather History Graph

Daily Weather History Graph

Search for Another Location

Airport or City:

Trip Planner

Search our weather history database for the weather conditions in past years. The results will help you decide how hot, cold, wet, or windy it might be!

Date:

Astronomy

Oct. 10, 2012 Rise Set
Actual Time 7:22 AM BST 6:20 PM BST
Civil Twilight 6:48 AM BST 6:54 PM BST
Nautical Twilight 6:08 AM BST 7:34 PM BST
Astronomical Twilight 5:28 AM BST 8:14 PM BST
Moon 1:02 AM BST (10/10) 3:51 PM BST (10/10)
Length of Visible Light 12h 06m
Length of Day
10h 57m
Waning Crescent, 29% of the Moon is Illuminated
Oct 10
Waning Crescent
Oct 15
New
Oct 22
First Quarter
Oct 29
Full
Nov 7
Last Quarter

Hourly Weather History & Observations

Time (BST) Temp. Windchill Dew Point Humidity Pressure Visibility Wind Dir Wind Speed Gust Speed Precip Events Conditions
12:20 AM 44.6 °F 43.1 °F 37.4 °F 76% 30.04 in 6.2 mi SE 3.5 mph - N/A   Mostly Cloudy
12:50 AM 44.6 °F 43.1 °F 39.2 °F 81% 30.04 in 6.2 mi East 3.5 mph - N/A   Mostly Cloudy
1:20 AM 42.8 °F 41.1 °F 39.2 °F 87% 30.04 in 6.2 mi NE 3.5 mph - N/A   Mostly Cloudy
1:50 AM 42.8 °F 41.1 °F 39.2 °F 87% 30.04 in 6.2 mi NNE 3.5 mph - N/A   Mostly Cloudy
2:20 AM 44.6 °F 42.2 °F 39.2 °F 81% 30.04 in 6.2 mi ENE 4.6 mph - N/A   Mostly Cloudy
2:50 AM 44.6 °F 42.2 °F 41.0 °F 87% 30.01 in 6.2 mi East 4.6 mph - N/A   Mostly Cloudy
3:20 AM 44.6 °F 42.2 °F 41.0 °F 87% 30.01 in 6.2 mi ENE 4.6 mph - N/A   Mostly Cloudy
3:50 AM 44.6 °F 43.1 °F 41.0 °F 87% 30.01 in 6.2 mi East 3.5 mph - N/A   Mostly Cloudy
4:20 AM 44.6 °F 43.1 °F 41.0 °F 87% 30.01 in 6.2 mi Variable 3.5 mph - N/A   Mostly Cloudy
4:50 AM 44.6 °F 43.1 °F 41.0 °F 87% 30.01 in 6.2 mi NE 3.5 mph - N/A   Mostly Cloudy
5:20 AM 44.6 °F 43.1 °F 41.0 °F 87% 30.01 in 6.2 mi NE 3.5 mph - N/A   Mostly Cloudy
5:50 AM 44.6 °F 43.1 °F 41.0 °F 87% 30.01 in 6.2 mi ENE 3.5 mph - N/A   Mostly Cloudy
6:20 AM 44.6 °F 43.1 °F 41.0 °F 87% 30.01 in 6.2 mi East 3.5 mph - N/A   Mostly Cloudy
6:50 AM 44.6 °F 42.2 °F 41.0 °F 87% 30.01 in 6.2 mi East 4.6 mph - N/A   Mostly Cloudy
7:20 AM 44.6 °F 43.1 °F 41.0 °F 87% 29.98 in 6.2 mi East 3.5 mph - N/A   Mostly Cloudy
7:50 AM 44.6 °F 42.2 °F 41.0 °F 87% 30.01 in 6.2 mi East 4.6 mph - N/A   Mostly Cloudy
8:20 AM 44.6 °F - 41.0 °F 87% 30.01 in 6.2 mi NE 2.3 mph - N/A   Mostly Cloudy
8:50 AM 44.6 °F 43.1 °F 42.8 °F 93% 30.01 in 6.2 mi NNE 3.5 mph - N/A   Mostly Cloudy
9:20 AM 46.4 °F 43.5 °F 41.0 °F 81% 30.01 in 6.2 mi East 5.8 mph - N/A   Mostly Cloudy
9:50 AM 48.2 °F - 41.0 °F 76% 30.01 in 6.2 mi ESE 4.6 mph - N/A   Mostly Cloudy
10:20 AM 48.2 °F - 41.0 °F 76% 30.01 in 6.2 mi ESE 5.8 mph - N/A   Mostly Cloudy
10:50 AM 50.0 °F - 41.0 °F 71% 30.01 in 6.2 mi SE 8.1 mph - N/A   Mostly Cloudy
11:20 AM 51.8 °F - 41.0 °F 67% 30.01 in 6.2 mi SE 9.2 mph - N/A   Mostly Cloudy
11:50 AM 51.8 °F - 39.2 °F 62% 30.01 in 6.2 mi SE 8.1 mph - N/A   Mostly Cloudy
12:20 PM 53.6 °F - 39.2 °F 58% 30.01 in 6.2 mi SE 9.2 mph - N/A   Mostly Cloudy
12:50 PM 53.6 °F - 41.0 °F 62% 29.98 in 6.2 mi SSE 8.1 mph - N/A   Mostly Cloudy
1:20 PM 55.4 °F - 41.0 °F 58% 29.98 in 6.2 mi SSE 9.2 mph - N/A   Mostly Cloudy
1:50 PM 55.4 °F - 41.0 °F 58% 29.98 in 6.2 mi South 9.2 mph - N/A   Mostly Cloudy
2:20 PM 55.4 °F - 41.0 °F 58% 29.98 in 6.2 mi SSE 9.2 mph - N/A   Mostly Cloudy
2:50 PM 57.2 °F - 41.0 °F 55% 29.95 in 6.2 mi SE 8.1 mph - N/A   Mostly Cloudy
3:20 PM 57.2 °F - 42.8 °F 59% 29.95 in 6.2 mi SE 10.4 mph - N/A   Scattered Clouds
3:50 PM 55.4 °F - 42.8 °F 63% 29.95 in 6.2 mi SSE 8.1 mph - N/A   Scattered Clouds
4:20 PM 55.4 °F - 42.8 °F 63% 29.92 in 6.2 mi SE 9.2 mph - N/A   Scattered Clouds
4:50 PM 55.4 °F - 42.8 °F 63% 29.92 in 6.2 mi SE 8.1 mph - N/A   Scattered Clouds
5:20 PM 55.4 °F - 42.8 °F 63% 29.92 in 6.2 mi SE 8.1 mph - N/A   Scattered Clouds
5:50 PM 55.4 °F - 42.8 °F 63% 29.92 in 6.2 mi SE 6.9 mph - N/A   Mostly Cloudy
6:20 PM 55.4 °F - 42.8 °F 63% 29.92 in 6.2 mi SE 9.2 mph - N/A   Mostly Cloudy
6:50 PM 53.6 °F - 42.8 °F 67% 29.92 in 6.2 mi SE 8.1 mph - N/A   Mostly Cloudy
7:20 PM 53.6 °F - 42.8 °F 67% 29.92 in 6.2 mi SSE 8.1 mph - N/A   Mostly Cloudy
7:50 PM 53.6 °F - 42.8 °F 67% 29.92 in 6.2 mi SSE 8.1 mph - N/A   Mostly Cloudy
8:20 PM 53.6 °F - 42.8 °F 67% 29.92 in 6.2 mi SSE 9.2 mph - N/A   Mostly Cloudy
8:50 PM 51.8 °F - 42.8 °F 71% 29.89 in 6.2 mi SE 6.9 mph - N/A   Mostly Cloudy
9:20 PM 51.8 °F - 42.8 °F 71% 29.89 in 6.2 mi SSE 8.1 mph - N/A   Mostly Cloudy
9:50 PM 51.8 °F - 42.8 °F 71% 29.89 in 6.2 mi SSE 8.1 mph - N/A   Mostly Cloudy
10:20 PM 50.0 °F - 42.8 °F 76% 29.89 in 6.2 mi SSE 10.4 mph - N/A   Mostly Cloudy
10:50 PM 50.0 °F - 42.8 °F 76% 29.89 in 6.2 mi SSE 10.4 mph - N/A   Mostly Cloudy
11:20 PM 50.0 °F - 41.0 °F 71% 29.86 in 6.2 mi SSE 10.4 mph - N/A   Scattered Clouds
11:50 PM 48.2 °F - 41.0 °F 76% 29.86 in 6.2 mi SSE 9.2 mph - N/A   Partly Cloudy